090  
ASUS41 KOKX 120705  
RWROKX  
 
REGIONAL WEATHER ROUNDUP  
NATIONAL WEATHER SERVICE NEW YORK NY  
200 AM EST TUE NOV 12 2019  
 
NOTE: "FAIR" INDICATES FEW OR NO CLOUDS BELOW 12,000 FEET WITH NO  
SIGNIFICANT WEATHER AND/OR S TO VISIBILITY
.  
 
NYZ071-072-176-178-NJZ106-104-120800-  
NEW YORK CITY METRO AREA  
 
CITY SKY/WX TMP DP RH WIND PRES REMARKS
 
CENTRAL PARK FAIR 57 45 64 MISG 29.76F  
BRONX LEHMAN C N/A 57 46 67 SW7 N/A  
LAGUARDIA ARPT CLOUDY 56 46 69 S7 29.74F  
QUEENS COLLEGE N/A 55 46 71 S8 N/A  
KENNEDY INTL CLOUDY 55 50 83 S14 29.76F  
BREEZY POINT NOT AVBL  
BROOKLYN COLL N/A 57 46 67 S13 N/A  
STATEN ISLAND N/A 55 45 67 S6 N/A  
NEWARK/LIBERTY MOCLDY 54 46 74 S6 29.74F  
TETERBORO FAIR 52 51 97 SW5 29.73F  

 
 
NYZ177-179-078>081-120800-  
LONG ISLAND NEW YORK  
 
CITY SKY/WX TMP DP RH WIND PRES REMARKS
 
JONES BEACH N/A 57 N/A N/A SW12G23 N/A  
WANTAGH N/A 57 50 77 SW10 N/A  
HEMPSTEAD N/A 55 50 82 S7 29.79F  
MATINECOCK PT N/A 55 N/A N/A SW8 N/A  
FARMINGDALE FAIR 56 48 74 SW14 29.76F  
MACARTHUR/ISP FAIR 57 50 77 SW10 29.77F  
STONY BROOK N/A 57 50 77 S6 N/A  
SHIRLEY FAIR 58 49 72 SW10 29.78F  
MT SINAI HARB N/A N/A N/A N/A S12G20 N/A  
WESTHAMPTON FAIR 58 51 78 S12 29.80F  
EAST HAMPTON FAIR 58 51 79 S10G17 29.79F  
SOUTHOLD N/A 57 50 77 SW9 N/A  
MONTAUK N/A 59 52 77 SW12G22 29.81F  

 
 
NYZ052-065-067-120800-  
HUDSON VALLEY  
 
CITY SKY/WX TMP DP RH WIND PRES REMARKS
 
WHITE PLAINS FAIR 50 48 93 S3 29.74F  
LARCHMONT HARB N/A 55 N/A N/A S15 N/A  
CROTON ON HUDS N/A 45 N/A N/A MISG N/A  
SOMERS N/A 50 48 93 SE2 N/A  
BREWSTER N/A 50 48 93 S3 N/A  
NEWBURGH CLOUDY 34 32 93 CALM 29.75F  
MONTGOMERY FAIR 32 28 85 N3 29.75F  
OTISVILLE N/A 32 30 93 CALM N/A  
WARWICK N/A 34 32 93 NW2 N/A  
SUFFERN N/A 46 46 100 SW1 N/A  
POUGHKEEPSIE CLOUDY 34 27 75 CALM 29.76F  
ALBANY CLOUDY 30 24 78 N6 29.77F WCI 24  

 
 
NJZ001-105-106-008-010-013-015-019>022-104-120800-  
NEW JERSEY  
 
CITY SKY/WX TMP DP RH WIND PRES REMARKS
 
NEWARK/LIBERTY MOCLDY 54 46 74 S6 29.74F  
TETERBORO FAIR 52 51 97 SW5 29.73F  
CALDWELL FAIR 46 43 89 CALM 29.75F  
SOMERVILLE FAIR 42 39 89 NW5 29.73F  
LINDEN FAIR 54 46 73 CALM 29.74F  
PERTH AMBOY N/A 55 N/A N/A SW8 N/A  
SUSSEX FAIR 36 30 79 NE3 29.74F  
ANDOVER N/A 38 32 79 NE5 29.74F WCI 34  
TRENTON FAIR 52 45 77 CALM 29.74F  
MILLVILLE FAIR 58 41 53 SW7G17 29.77F  
ATLANTIC CITY FAIR 61 38 42 SW14G23 29.78F  
WRIGHTSTOWN MOCLDY 56 43 60 SW15 29.74  
TOMS RIVER FAIR 56 44 64 S7 29.77F  
BELMAR FAIR 57 43 59 S10G16 29.77F  

 
 
PAZ047>061-062-071-120800-  
EASTERN PENNSYLVANIA  
 
CITY SKY/WX TMP DP RH WIND PRES REMARKS
 
PHILADELPHIA MOCLDY 56 42 59 S9 29.76F  
ALLENTOWN FAIR 49 41 74 CALM 29.72F  
SCRANTON MOCLDY 38 34 85 S3 29.73R  

 
 
CTZ002-004>006-009-010-012-RIZ004-006-007-MAZ004-011-015-120800-  
SOUTHERN NEW ENGLAND  
 
IN CT  
 
CITY SKY/WX TMP DP RH WIND PRES REMARKS
 
BRADLEY INTL CLOUDY 43 34 70 N5 29.77F  
HARTFORD CLOUDY 43 34 70 NE5 29.78F  
DANBURY FAIR 52 50 93 S5 29.75F  
WTRBURY/OXFORD CLOUDY 48 46 93 SE8 29.76F  
NORWALK HARBOR N/A 55 N/A N/A S12 N/A  
BRIDGEPORT FAIR 56 52 86 S10 29.76F  
MERIDEN CLOUDY 43 34 70 CALM 29.78F  
NEW HAVEN FAIR 49 41 74 CALM 29.77F  
CHESTER FAIR 54 54 100 S8 29.77F  
GROTON FAIR 58 53 84 S14 29.78F  
WILLIMANTIC CLOUDY 47 41 80 CALM 29.79F  
 
IN RI  
 
CITY SKY/WX TMP DP RH WIND PRES REMARKS
 
PROVIDENCE CLOUDY 47 44 90 CALM 29.82F  
BLOCK ISLAND FAIR 58 52 80 SW18G24 29.81F  
WESTERLY FAIR 58 50 75 S9 29.80F  
 
IN MA  
 
CITY SKY/WX TMP DP RH WIND PRES REMARKS
 
BOSTON CLOUDY 39 35 86 NE9 29.82F WCI 33  
WORCESTER FOG 34 34 100 NE8 29.79F VSB 1/4 WCI 27  
WESTFIELD CLOUDY 38 32 79 NE7 29.77F WCI 33  
PROVINCETOWN FOG 53 53 100 NW3 29.83F VSB 1/2  
NANTUCKET FAIR 57 54 89 S15 29.86F  

 
 
ANZ330-335-338-340-345-350-353-355-120800-  
COASTAL MARINE OBSERVATIONS  
 
 
STATION/POSITION TIME SKY/WX TEMP WIND PRES VSBY WAVE
 
AIR SEA DIR/SP/G HT/PER  
(UTC) (F) (DEG/KT/KT) (MB) (MI) (FT/S)  
NY HARB ENTRANCE 0650 58 56 200/ 21/ 27 1007.5 5/ 6  
20 S FIRE ISLAND 0650 60 58 210/ 19/ 23 1008.3 6/ 6  
GREAT SOUTH BAY 0630 57 49 210/ 17/ 21 N/A  
23 SSW MONTAUK P NOT AVBL  
15 E BARNEGAT LI 0630 58 N/A 7/ 6  
HUDSON CANYON 0650 63 62 220/ 23/ 29 1010.7 8/ 6  
KINGS POINT 0630 56 56 220/ 13/ 17 1007.9  
EXECUTION ROCKS 0645 56 32 190/ 12/ 14 N/A  
WESTERN LI SOUND 0550 56 190/ 10/ 12 N/A 0  
CENTRAL LI SOUND NOT AVBL  
ROBBINS REEF 0630 56 210/ 9/ 11 1007.0  

 
 
>>>>>>>>>>>>>>>>>>>>>>>>>>>> KEY <<<<<<<<<<<<<<<<<<<<<<<<<<<  
> <  
> SKY/WX - SKY CONDITION/PRESENT WEATHER <  
> TMP - TEMPERATURE IN FAHRENHEIT <  
> DP - DEW POINT IN FAHRENHEIT <  
> RH - RELATIVE HUMIDITY IN PERCENT <  
> WIND - DIRECTION (FROM) AND SPEED IN MPH <  
> PRES - MEAN SEA LEVEL PRESSURE (INCHES OF HG) <  
> WCI - WIND CHILL INDEX <  
> VSB - VISIBILITY IN MILES <  
> HX - HEAT INDEX <  
> TC - TEMPERATURE IN CELSIUS <  
> VRB - VARIABLE WIND DIRECTION <  
> <  
>>>>>>>>>>>>>>>>>>>>>>>>>>>> KEY <<<<<<<<<<<<<<<<<<<<<<<<<<<  
 
 
CLICK HERE TO GO TO PREVIOUS BULLETINS.

The Nexlab NY Page
The Nexlab NJ Page
The Nexlab CT Page Main Text Page